Location: Alpine
(43.1636°N, 111.0180°W)
Time: 04:20:47
(UTC+00:00)

Tiros 1 despin weight - Pass Details

Date: 05 June 2022
Orbit: 591 x 639 km, 48.2° (Epoch: 30 June)

Event Time Altitude Azimuth Distance (km) Brightness Sun altitude
Rises 03:58:04 0° 291° (WNW) 2,863 ? -9.2°
Reaches altitude 10° 04:00:32 10° 283° (WNW) 1,948 ? -9.6°
Maximum altitude 04:04:33 34° 218° (SW) 996 ? -10.1°
Enters shadow 04:08:02 13° 157° (SSE) 1,748 ? -10.5°
Drops below altitude 10° 04:08:31 10° 154° (SSE) 1,918 - -10.6°
Sets 04:10:56 0° 145° (SE) 2,812 - -10.9°
